Weather History for KILN - May, 2013

Change the Weather History Date:

Friday, May 17, 2013

  Actual Average (KDAY) Record (KDAY)
Temperature  
Mean Temperature 65 °F 62 °F  
Max Temperature 77 °F 72 °F 93 °F (1900)
Min Temperature 55 °F 52 °F 33 °F (1895)
Degree Days  
Heating Degree Days 0 5  
Month to date heating degree days 116  
Since 1 July heating degree days 5567  
Cooling Degree Days 0 2  
Month to date cooling degree days 22  
Year to date cooling degree days 32  
Growing Degree Days 15 (Base 50)    
Moisture  
Dew Point 61 °F    
Average Humidity 90    
Maximum Humidity 100    
Minimum Humidity 62    
Precipitation  
Precipitation 0.12 in 0.15 in 2.20 in (1974)
Month to date precipitation 2.55  
Year to date precipitation 14.93  
Snow  
Snow 0.00 in 0.00 in 0.00 in ()
Month to date snowfall 0.0  
Since 1 July snowfall 23.3  
Snow Depth -    
Sea Level Pressure  
Sea Level Pressure 30.05 in    
Wind  
Wind Speed 4 mph (SSE)    
Max Wind Speed 10 mph    
Max Gust Speed -    
Visibility 4 miles    
Events Fog , Rain , Thunderstorm    
T = Trace of Precipitation, MM = Missing Value Source: NWS Daily Summary

Daily Weather History Graph

Daily Weather History Graph

Search for Another Location

Airport or City:

Trip Planner

Search our weather history database for the weather conditions in past years. The results will help you decide how hot, cold, wet, or windy it might be!

Date:

Astronomy

May. 17, 2013 Rise Set
Actual Time 6:19 AM EDT 8:44 PM EDT
Civil Twilight 5:49 AM EDT 9:14 PM EDT
Nautical Twilight 5:11 AM EDT 9:52 PM EDT
Astronomical Twilight 4:29 AM EDT 10:34 PM EDT
Moon 12:50 PM EDT (5/17) 1:37 AM EDT (5/17)
Length of Visible Light 15h 25m
Length of Day
14h 24m
Waxing Crescent, 45% of the Moon is Illuminated
May 17
Waxing Crescent
May 18
First Quarter
May 25
Full
May 31
Last Quarter
Jun 8
New

Hourly Weather History & Observations

Time (EDT) Temp. Dew Point Humidity Pressure Visibility Wind Dir Wind Speed Gust Speed Precip Events Conditions
12:54 AM 61.0 °F 61.0 °F 100% 30.00 in 1.2 mi South 4.6 mph - N/A   Clear
1:19 AM 60.8 °F 60.8 °F 100% 30.01 in 0.5 mi South 4.6 mph - N/A Fog Fog
1:23 AM 60.8 °F 60.8 °F 100% 30.01 in 0.5 mi South 4.6 mph - N/A Fog Fog
1:31 AM 60.8 °F 60.8 °F 100% 30.01 in 0.2 mi Calm Calm - N/A Fog Fog
1:54 AM 61.0 °F 60.1 °F 97% 29.99 in 0.2 mi SSW 4.6 mph - N/A Fog Fog
2:54 AM 59.0 °F 59.0 °F 100% 29.99 in 0.2 mi SSW 3.5 mph - N/A Fog Fog
3:54 AM 57.9 °F 57.9 °F 100% 30.01 in 0.2 mi SSW 4.6 mph - N/A Fog Fog
4:54 AM 57.9 °F 57.9 °F 100% 30.02 in 0.2 mi SSW 3.5 mph - N/A Fog Fog
5:54 AM 55.9 °F 55.9 °F 100% 30.03 in 0.2 mi Calm Calm - N/A Fog Fog
6:17 AM 57.2 °F 57.2 °F 100% 30.03 in 0.2 mi Calm Calm - N/A Fog Fog
6:54 AM 55.9 °F 55.9 °F 100% 30.05 in 0.2 mi Calm Calm - N/A Fog Fog
7:26 AM 57.2 °F 57.2 °F 100% 30.07 in 0.2 mi Calm Calm - N/A Fog Fog
8:54 AM 61.0 °F 61.0 °F 100% 30.07 in 0.2 mi Calm Calm - N/A Fog Fog
9:44 AM 64.4 °F 64.4 °F 100% 30.08 in 1.0 mi ESE 3.5 mph - N/A   Overcast
9:54 AM 64.9 °F 64.9 °F 100% 30.07 in 1.5 mi ESE 3.5 mph - N/A   Overcast
10:01 AM 64.4 °F 64.4 °F 100% 30.08 in 2.5 mi Variable 4.6 mph - N/A   Mostly Cloudy
10:18 AM 64.4 °F 64.4 °F 100% 30.08 in 3.0 mi ESE 6.9 mph - N/A   Scattered Clouds
10:54 AM 70.0 °F 64.9 °F 84% 30.08 in 4.0 mi ESE 6.9 mph - N/A   Haze
11:42 AM 71.6 °F 64.4 °F 78% 30.09 in 6.0 mi SE 6.9 mph - N/A   Haze
11:54 AM 73.0 °F 64.0 °F 73% 30.07 in 8.0 mi Variable 5.8 mph - N/A   Partly Cloudy
12:54 PM 73.9 °F 64.9 °F 73% 30.06 in 8.0 mi SSE 3.5 mph - N/A   Scattered Clouds
1:54 PM 73.9 °F 63.0 °F 68% 30.06 in 8.0 mi SE 3.5 mph - N/A   Scattered Clouds
3:54 PM 73.9 °F 64.0 °F 71% 30.03 in 7.0 mi SSE 4.6 mph - N/A   Clear
4:54 PM 75.9 °F 62.1 °F 62% 30.02 in 10.0 mi SSE 5.8 mph - N/A   Clear
5:54 PM 75.0 °F 63.0 °F 66% 30.02 in 10.0 mi Calm Calm - N/A   Clear
6:04 PM 75.2 °F 62.6 °F 65% 30.03 in 10.0 mi Calm Calm - N/A Thunderstorm Clear
6:54 PM 66.9 °F 62.1 °F 84% 30.06 in 9.0 mi WSW 10.4 mph - 0.00 in Rain , Thunderstorm Light Thunderstorms and Rain
7:14 PM 64.4 °F 62.6 °F 94% 30.08 in 2.5 mi South 9.2 mph - 0.03 in Rain , Thunderstorm Thunderstorms and Rain
7:34 PM 64.4 °F 62.6 °F 94% 30.08 in 3.0 mi South 8.1 mph - 0.10 in Rain Light Rain
7:54 PM 64.0 °F 62.1 °F 93% 30.07 in 4.0 mi South 4.6 mph - 0.11 in Rain Light Rain
8:54 PM 64.0 °F 61.0 °F 90% 30.08 in 10.0 mi ENE 3.5 mph - 0.01 in   Overcast
9:54 PM 63.0 °F 61.0 °F 93% 30.08 in 10.0 mi NNE 4.6 mph - 0.00 in   Overcast
10:54 PM 63.0 °F 61.0 °F 93% 30.07 in 9.0 mi Calm Calm - N/A   Overcast
11:54 PM 63.0 °F 61.0 °F 93% 30.06 in 8.0 mi Calm Calm - N/A   Overcast